Retour au catalogue

STARLINK-36140

ActifCommunicationsVLEO
NORAD 67034·PAYLOAD·🇺🇸 United States

Lancé Dec 11, 2025 depuis Cape Canaveral Space Force Station

Loading…

Prochains Passages (prochaines 24 heures)

TLE

FraisSource: CelesTrak SupGP

Époque: Sep 14, 2026, 23:02 UTC

1 67034C 25294E   26257.96020833  .00033886  00000+0  12271-2 0  2574
2 67034  43.0003  49.4919 0001639 272.9141  30.6468 15.27567830    15

Suivez STARLINK-36140 en temps réel avec AllMySat

Download on the App Store